STARLINK-30138 (57605 NORAD) Tracking and Keplerian Element Data

This shows tracking and keplerian element data for the satellite.

Feedback or suggestion? Click here.




ElementValue
Catalog57605
NameSTARLINK-30138
Epoch Orbit374
Epoch Day238.91667824
Epoch Year2023
RAAN79.2555
Inclination43.0008
Eccentricity0.0002298
Argument of Perigee189.7298
Mean Anonmoly87.2435
Mean Motion15.74842314
Decay Rate-0.00735403
L11 57605U 23119D 23238.91667824 -.00735403 00000+0 -52598-2 0 9994
L22 57605 43.0008 79.2555 0002298 189.7298 87.2435 15.74842314 3740



Live tracking and technical data element details for STARLINK-30138 (NORAD 57605). STARLINK-30138 can be tracked NOW for your location showing map with azimuth and elevation plus other details from your city location.







IsCatalogInMostPopularTable: catalog: 57605, numindb: 5
Update: records affected: 1



GetName: 57605 STARLINK-30138

Hit Count: updated at: Tue, 26 Sep 2023 12:58:50 GMT